Location: Santa Cristina
(46.5667°N, 11.7167°E)
Time: 17:38:02
(UTC+00:00)

Cosmos 1455 Rocket - Pass Details

Date: 21 April 2021
Orbit: 603 x 631 km, 82.5° (Epoch: 11 May)

Event Time Altitude Azimuth Distance (km) Brightness Sun altitude
Rises 03:21:34 0° 356° (N) 2,884 6.8 -9.3°
Reaches altitude 10° 03:23:54 10° 4° (N) 1,971 6.1 -8.9°
Maximum altitude 03:28:03 43° 76° (ENE) 863 4.5 -8.3°
Drops below altitude 10° 03:32:09 10° 148° (SSE) 1,947 5.7 -7.7°
Sets 03:34:26 0° 155° (SSE) 2,845 6.5 -7.3°
